Tracking 19247 objects as of 22-Sep-2018
HD Live streaming from Space Station
objects crossing your sky now

FENGYUN 1C DEB

Track FENGYUN 1C DEB now!
10-day predictions


NORAD ID: 31782
Int'l Code: 1999-025CGH
Perigee: 735.6 km
Apogee: 861.4 km
Inclination: 98.7 °
Period: 100.7 minutes
Semi major axis: 7169 km
RCS: 0.0103 m2 (small)
Launch date: May 10, 1999
Source: People's Republic of China (PRC)
Launch site: Taiyaun Space Center, China (TSC)

Note: This is SATELLITE DEBRIS
aabbcc
Your satellite tracking list
Your tracking list is empty




NASA's NSSDC Master Catalog

Two Line Element Set (TLE):
1 31782U 99025CGH 18263.22261709 +.00000130 +00000-0 +64609-4 0  9998
2 31782 098.6916 000.1445 0087756 177.3835 213.1693 14.30107312589079
Source of the keplerian elements: AFSPC